Regional Weather Roundup
Issued by NWS

Home | Current Version | Previous Version | Text Only | Print | Product List | Glossary Off
Versions: 1 2 3 4 5 6 7 8 9 10 11 12 13 14 15 16 17 18 19 20 21 22 23 24 25 26 27 28 29 30 31 32 33 34 35 36 37 38 39 40 41 42 43 44 45

000
ASUS45 KBOU 251207
RWRCO

WEATHER ROUNDUP FOR COLORADO
NATIONAL WEATHER SERVICE DENVER/BOULDER CO
500 AM MST THU DEC 25 2014

NOTE: "FAIR" INDICATES FEW OR NO CLOUDS BELOW 12000 FEET WITH NO
SIGNIFICANT WEATHER AND/OR OBSTRUCTIONS TO VISIBILITY.

COZ001>005-013-030-031-251300-
...NORTHWEST COLORADO...

CITY           SKY/WX    TMP DP  RH WIND       PRES   REMARKS
CRAIG          CLOUDY    31  24  75 SW8       29.48F WCI  23
HAYDEN         MOCLDY    25  19  80 SE7       29.49R WCI  17
MEEKER         FLURRIES  30  24  78 N9        29.50F WCI  22
MOUNT WERNER   NOT AVBL
STEAMBOAT SPGS CLOUDY    20  18  92 CALM      29.48F
WALDEN         CLOUDY    28  21  74 S6        29.46F WCI  22
$$

COZ006>008-011-251300-
...WEST CENTRAL VALLEYS...

CITY           SKY/WX    TMP DP  RH WIND       PRES   REMARKS
GRAND JUNCTION CLOUDY    30  21  69 NE5       29.52F WCI  25
MONTROSE       MOCLDY    28  17  63 NE9       29.53F WCI  19
EAGLE          CLOUDY    18  12  79 CALM      29.58F
RIFLE          CLOUDY    25  19  78 SE5       29.57F WCI  19
DELTA          CLOUDY    34  24  65 N5G16     29.55F WCI  30
NUCLA          CLOUDY    32  19  59 N6        29.58F WCI  26
$$

COZ017>023-064>068-251300-
...SOUTHWEST COLORADO...

CITY           SKY/WX    TMP DP  RH WIND       PRES   REMARKS
DURANGO        CLOUDY    25  18  74 N5        29.66F WCI  19
CORTEZ         CLOUDY    37  15  40 VRB6      29.60F
PAGOSA SPRINGS CLOUDY    22  11  61 CALM      29.68S
TELLURIDE      CLOUDY    29  19  64 S13       29.60F WCI  19
WOLF CREEK PAS FLURRIES  10   5  79 MISG      29.61F
$$

COZ009-010-012-014-032>034-037-058>063-251300-
...CENTRAL COLORADO...

CITY           SKY/WX    TMP DP  RH WIND       PRES   REMARKS
ASPEN          CLOUDY    22  17  81 VRB3      29.50F
BUENA VISTA    CLOUDY    16  10  78 NW5       29.55F WCI   9
COPPER MTN     LGT SNOW  23  16  74 S23G29    29.52R VSB 1   WCI   7
BERTHOUD PASS  FAIR      14  10  85 MISG      29.51F
COTTONWOOD PAS CLOUDY    25  12  58 CALM      29.53F
GUNNISON       CLOUDY     7  -8  51 CALM      29.64F
KREMMLING      CLOUDY     9   3  78 CALM      29.54F
LEADVILLE      FLURRIES  15  10  80 N3        29.50F
MONARCH PASS   CLOUDY    12  10  92 MISG      29.65S
SALIDA         MOCLDY    30  10  43 SW14G22   29.61F WCI  19
SUNLIGHT       LGT SNOW N/A N/A N/A MISG      29.50S VSB 1
WILKERSON PASS PTCLDY    14  10  85 SW13G20   29.52F WCI   0
$$

COZ069>075-251300-
...SAN LUIS VALLEY/SANGRE DE CRISTO MOUNTAINS...

CITY           SKY/WX    TMP DP  RH WIND       PRES   REMARKS
ALAMOSA        MOCLDY     3  -2  79 N5        29.64F WCI  -6
LA VETA PASS   NOT AVBL
SAGUACHE       PTCLDY     7   1  78 N9        29.64F WCI  -7
$$

COZ035-036-038>040-251300-
...NORTHERN COLORADO FRONT RANGE...

CITY           SKY/WX    TMP DP  RH WIND       PRES   REMARKS
DENVER INTL AP PTCLDY    40  17  39 S15       29.36F
DMNS CITY PARK   N/A     39  14  36 S6        29.36F
AURORA         MOCLDY    37  17  42 S12       29.37F
FRONT RANGE AP NOT AVBL
ERIE MUNI ARPT   N/A     25  16  68 E7        29.37S WCI  17
BOULDER MUN AP CLEAR     28  19  69 NE5       29.36S WCI  23
CENTENNIAL     MOCLDY    40  18  41 SW16      29.37F
BROOMFIELD     CLEAR     34  16  47 CALM      29.36F
FORT COLLINS   MOCLDY    23  16  74 N8        29.39F WCI  14
LONGMONT       MOCLDY    24  16  69 CALM      29.38F
$$

COZ041-046-047-076>085-087-088-251300-
...PIKES PEAK/PALMER DIVIDE AND SOUTHERN FOOTHILLS...

CITY           SKY/WX    TMP DP  RH WIND       PRES   REMARKS
COLO. SPRINGS  PTCLDY    33  14  45 NE5       29.42F WCI  29
A. F. ACADEMY  PTCLDY    26  13  59 N6        29.41F WCI  19
ELLICOTT       NOT AVBL
FALCON         PTCLDY    30  14  51 N6        29.43F WCI  24
FORT CARSON    PTCLDY    30  14  51 SW7       29.40F WCI  24
LIMON          CLOUDY    23  21  92 CALM      29.41F
MONUMENT HILL  PTCLDY    34  18  51 W12       29.42F WCI  25
TRINIDAD       PTCLDY    35  15  44 SW15      29.49F WCI  25
$$

COZ042>045-048>051-090-091-251300-
...NORTHEAST COLORADO...

CITY           SKY/WX    TMP DP  RH WIND       PRES   REMARKS
GREELEY ARPT   CLOUDY    23  12  63 CALM      29.37F
AKRON          CLOUDY    36  23  59 W3        29.39R
BURLINGTON     CLOUDY    32  23  69 W8        29.38F WCI  25
WRAY           MOCLDY    25  22  88 CALM      29.39F
STERLING       CLOUDY    28  27  93 S6        29.41R WCI  22
HOLYOKE        MOCLDY    32  28  86 N12       29.39F WCI  23
FORT MORGAN    CLOUDY    31  22  69 N6        29.41F WCI  26
$$

COZ086-089-092>099-251300-
...SOUTHEAST COLORADO...

CITY           SKY/WX    TMP DP  RH WIND       PRES   REMARKS
PUEBLO         PTCLDY    34  16  47 S6        29.44F WCI  29
LA JUNTA       PTCLDY    46  17  31 W20G31    29.44S
LAMAR          CLOUDY    34  22  61 CALM      29.42F
SPRINGFIELD      N/A     36  23  59 S5        29.45F
$$


USA.gov is the U.S. government's official web portal to all federal, state and local government web resources and services.